TimePDT,TemperatureF,Dew PointF,Humidity,Sea Level PressureIn,VisibilityMPH,Wind Direction,Wind SpeedMPH,Gust SpeedMPH,PrecipitationIn,Events,Conditions,WindDirDegrees,DateUTC
12:05 AM,48.2,44.6,87,29.44,1.8,SSE,13.8,27.6,0.01,Rain,Light Rain,150,2013-03-20 07:05:00
12:36 AM,48.2,44.6,87,29.43,1.2,SSE,15.0,33.4,0.03,Rain,Light Rain,160,2013-03-20 07:36:00
12:43 AM,48.2,44.6,87,29.42,1.0,SSE,17.3,32.2,0.04,Rain,Light Rain,160,2013-03-20 07:43:00
12:47 AM,48.2,44.6,87,29.42,1.0,SSE,10.4,32.2,0.04,Rain,Light Rain,150,2013-03-20 07:47:00
12:53 AM,48.9,45.0,86,29.42,1.0,SSE,10.4,29.9,0.05,Rain,Light Rain,160,2013-03-20 07:53:00
1:16 AM,48.2,44.6,87,29.41,0.8,SSE,15.0,28.8,0.03,Rain,Light Rain,150,2013-03-20 08:16:00
1:29 AM,48.2,44.6,87,29.41,0.8,South,10.4,24.2,0.05,Rain,Light Rain,170,2013-03-20 08:29:00
1:53 AM,48.9,46.0,90,29.39,0.5,SSE,16.1,25.3,0.08,Fog-Rain,Light Rain,160,2013-03-20 08:53:00
2:14 AM,50.0,46.4,87,29.39,1.0,South,12.7,29.9,0.11,Rain,Rain,170,2013-03-20 09:14:00
2:43 AM,50.0,46.4,87,29.38,0.8,South,17.3,32.2,0.18,Rain,Light Rain,180,2013-03-20 09:43:00
2:53 AM,50.0,46.9,89,29.38,1.0,South,15.0,27.6,0.18,Rain,Light Rain,170,2013-03-20 09:53:00
3:06 AM,50.0,46.4,87,29.37,0.8,South,12.7,26.5,0.06,Rain,Light Rain,180,2013-03-20 10:06:00
3:14 AM,50.0,46.4,87,29.36,1.0,South,11.5,25.3,0.08,Rain,Rain,180,2013-03-20 10:14:00
3:21 AM,50.0,46.4,87,29.36,0.8,South,11.5,27.6,0.10,Rain,Light Rain,180,2013-03-20 10:21:00
3:53 AM,50.0,46.9,89,29.34,0.8,South,9.2,24.2,0.20,Rain,Rain,180,2013-03-20 10:53:00
4:12 AM,50.0,46.4,87,29.32,1.0,South,15.0,24.2,0.04,Rain,Light Rain,180,2013-03-20 11:12:00
4:30 AM,50.0,46.4,87,29.31,1.5,South,15.0,32.2,0.09,Rain,Light Rain,190,2013-03-20 11:30:00
4:43 AM,50.0,46.4,87,29.30,1.0,South,17.3,29.9,0.10,Rain,Light Rain,170,2013-03-20 11:43:00
4:53 AM,50.0,46.9,89,29.30,1.0,South,13.8,28.8,0.12,Rain,Light Rain,180,2013-03-20 11:53:00
5:02 AM,50.0,46.4,87,29.29,1.8,South,12.7,31.1,0.00,Rain,Light Rain,180,2013-03-20 12:02:00
5:09 AM,50.0,46.4,87,29.29,2.0,South,15.0,31.1,0.00,Rain,Light Rain,180,2013-03-20 12:09:00
5:32 AM,50.0,46.4,87,29.28,1.5,South,11.5,26.5,0.02,Rain,Rain,180,2013-03-20 12:32:00
5:39 AM,50.0,46.4,87,29.28,1.2,South,16.1,27.6,0.04,Rain,Light Rain,190,2013-03-20 12:39:00
5:53 AM,50.0,46.9,89,29.28,1.2,South,16.1,31.1,0.06,Rain,Light Rain,180,2013-03-20 12:53:00
6:12 AM,50.0,46.4,87,29.28,1.5,South,13.8,29.9,0.03,Rain,Light Rain,190,2013-03-20 13:12:00
6:19 AM,50.0,46.4,87,29.28,0.8,South,15.0,24.2,0.03,Rain,Light Rain,190,2013-03-20 13:19:00
6:27 AM,50.0,46.4,87,29.28,1.5,SSW,16.1,28.8,0.04,Rain,Light Rain,200,2013-03-20 13:27:00
6:43 AM,50.0,46.4,87,29.28,2.0,SSW,16.1,25.3,0.07,Rain,Light Rain,210,2013-03-20 13:43:00
6:53 AM,50.0,46.0,86,29.29,3.0,SSW,12.7,29.9,0.08,Rain,Light Rain,200,2013-03-20 13:53:00
6:59 AM,50.0,46.4,87,29.29,1.8,SSW,18.4,31.1,0.00,Rain,Light Rain,200,2013-03-20 13:59:00
7:23 AM,48.2,44.6,87,29.31,3.0,SW,17.3,31.1,0.00,Rain,Light Rain,230,2013-03-20 14:23:00
7:34 AM,48.2,44.6,87,29.32,2.5,SW,16.1,29.9,0.00,,Overcast,220,2013-03-20 14:34:00
7:53 AM,48.0,44.1,86,29.34,1.8,SW,15.0,28.8,0.00,,Overcast,220,2013-03-20 14:53:00
8:01 AM,48.2,44.6,87,29.34,2.0,SW,11.5,20.7,N/A,,Overcast,220,2013-03-20 15:01:00
8:08 AM,48.2,44.6,87,29.35,1.5,SW,20.7,36.8,N/A,,Overcast,220,2013-03-20 15:08:00
8:19 AM,46.4,42.8,87,29.36,2.5,SW,15.0,35.7,0.00,,Overcast,230,2013-03-20 15:19:00
8:28 AM,46.4,42.8,87,29.37,3.0,SSW,9.2,27.6,0.00,,Overcast,210,2013-03-20 15:28:00
8:38 AM,46.4,42.8,87,29.37,1.5,SSW,10.4,19.6,0.00,Rain,Light Rain,210,2013-03-20 15:38:00
8:41 AM,46.4,44.6,93,29.37,0.8,SW,12.7,23.0,0.00,Rain,Light Rain,220,2013-03-20 15:41:00
8:53 AM,46.9,43.0,86,29.39,0.5,SSW,13.8,-,0.02,Fog-Rain,Rain,210,2013-03-20 15:53:00
9:13 AM,46.4,42.8,87,29.40,1.0,SSW,10.4,25.3,0.02,Rain,Light Rain,210,2013-03-20 16:13:00
9:19 AM,46.4,42.8,87,29.40,2.0,SW,13.8,19.6,0.02,Rain,Light Rain,220,2013-03-20 16:19:00
9:26 AM,46.4,42.8,87,29.40,3.0,SW,13.8,21.9,0.02,,Overcast,220,2013-03-20 16:26:00
9:29 AM,46.4,42.8,87,29.41,2.5,SSW,11.5,21.9,0.02,,Overcast,210,2013-03-20 16:29:00
9:41 AM,46.4,42.8,87,29.42,1.2,SW,15.0,19.6,0.02,Rain,Light Rain,220,2013-03-20 16:41:00
9:43 AM,46.4,42.8,87,29.42,0.8,SW,17.3,-,0.02,Rain,Light Rain,230,2013-03-20 16:43:00
9:51 AM,46.4,42.8,87,29.42,1.0,SW,12.7,25.3,0.04,Rain,Light Rain,220,2013-03-20 16:51:00
9:53 AM,46.9,43.0,86,29.42,2.0,SW,11.5,25.3,0.04,Rain,Light Rain,220,2013-03-20 16:53:00
10:03 AM,46.4,42.8,87,29.43,1.8,SW,15.0,21.9,0.00,Rain,Light Rain,230,2013-03-20 17:03:00
10:10 AM,46.4,42.8,87,29.43,1.2,SW,13.8,23.0,0.00,Rain,Light Rain,230,2013-03-20 17:10:00
10:20 AM,46.4,42.8,87,29.43,1.8,SW,12.7,20.7,0.01,Rain,Light Rain,220,2013-03-20 17:20:00
10:26 AM,46.4,42.8,87,29.43,1.2,WSW,12.7,-,0.01,Rain,Light Rain,240,2013-03-20 17:26:00
10:41 AM,46.4,42.8,87,29.45,1.5,WSW,19.6,25.3,0.03,Rain,Light Rain,240,2013-03-20 17:41:00
10:53 AM,46.0,42.1,86,29.46,1.8,SW,17.3,25.3,0.03,Rain,Light Rain,230,2013-03-20 17:53:00
10:58 AM,46.4,42.8,87,29.46,1.0,WSW,23.0,32.2,0.00,Rain,Light Rain,240,2013-03-20 17:58:00
11:05 AM,46.4,42.8,87,29.47,1.0,WSW,17.3,32.2,0.01,Rain,Light Rain,240,2013-03-20 18:05:00
11:13 AM,46.4,42.8,87,29.47,2.0,WSW,16.1,28.8,0.02,Rain,Light Rain,240,2013-03-20 18:13:00
11:33 AM,46.4,41.0,81,29.49,3.0,WSW,20.7,26.5,0.02,Rain,Light Rain,240,2013-03-20 18:33:00
11:39 AM,46.4,39.2,76,29.49,2.5,WSW,21.9,31.1,0.03,Rain,Light Rain,240,2013-03-20 18:39:00
11:53 AM,46.0,41.0,83,29.52,2.0,WSW,19.6,28.8,0.03,Rain,Light Rain,250,2013-03-20 18:53:00
12:12 PM,46.4,41.0,81,29.53,3.0,WSW,19.6,26.5,0.01,Rain,Light Rain,240,2013-03-20 19:12:00
12:39 PM,44.6,39.2,81,29.57,2.0,WSW,20.7,34.5,0.01,Rain,Light Rain,250,2013-03-20 19:39:00
12:53 PM,45.0,39.0,80,29.59,3.0,West,18.4,32.2,0.01,Rain,Light Rain,260,2013-03-20 19:53:00
1:07 PM,44.6,39.2,81,29.60,1.8,West,16.1,29.9,0.00,Rain,Light Rain,280,2013-03-20 20:07:00
1:15 PM,44.6,37.4,76,29.61,1.2,West,20.7,33.4,0.02,Rain,Light Rain,260,2013-03-20 20:15:00
1:19 PM,44.6,39.2,81,29.61,2.0,West,18.4,33.4,0.02,Rain,Light Rain,260,2013-03-20 20:19:00
1:28 PM,44.6,39.2,81,29.63,1.2,West,17.3,26.5,0.03,Rain,Light Rain,260,2013-03-20 20:28:00
1:40 PM,44.6,39.2,81,29.64,1.5,West,21.9,31.1,0.04,Rain,Light Rain,260,2013-03-20 20:40:00
1:53 PM,44.1,39.0,82,29.65,2.5,West,18.4,31.1,0.05,Rain,Light Rain,260,2013-03-20 20:53:00
2:02 PM,44.6,39.2,81,29.66,1.5,West,19.6,29.9,0.01,Rain,Light Rain,270,2013-03-20 21:02:00
2:09 PM,44.6,39.2,81,29.66,3.0,West,19.6,33.4,0.01,Rain,Light Rain,270,2013-03-20 21:09:00
2:17 PM,44.6,39.2,81,29.67,1.8,West,16.1,29.9,0.02,Rain,Light Rain,260,2013-03-20 21:17:00
2:39 PM,44.6,37.4,76,29.69,3.0,West,16.1,26.5,N/A,Rain,Light Rain,280,2013-03-20 21:39:00
2:46 PM,44.6,37.4,76,29.70,2.5,West,17.3,29.9,0.03,Rain,Light Rain,270,2013-03-20 21:46:00
2:53 PM,45.0,37.9,76,29.71,2.5,West,18.4,33.4,0.03,Rain,Light Rain,280,2013-03-20 21:53:00
3:04 PM,44.6,37.4,76,29.72,3.0,West,13.8,26.5,0.00,,Haze,280,2013-03-20 22:04:00
3:15 PM,44.6,37.4,76,29.72,2.5,West,13.8,20.7,0.00,,Haze,270,2013-03-20 22:15:00
3:28 PM,46.4,37.4,71,29.74,2.5,West,17.3,32.2,0.00,,Haze,280,2013-03-20 22:28:00
3:53 PM,46.0,36.0,68,29.76,2.5,West,13.8,27.6,0.00,,Haze,270,2013-03-20 22:53:00
4:39 PM,46.4,33.8,62,29.79,3.0,West,21.9,28.8,N/A,,Haze,270,2013-03-20 23:39:00
4:53 PM,46.0,32.0,58,29.81,3.0,West,20.7,29.9,N/A,,Haze,270,2013-03-20 23:53:00
5:44 PM,44.6,33.8,66,29.84,2.5,West,11.5,29.9,0.01,Rain,Light Rain,280,2013-03-21 00:44:00
5:53 PM,44.1,30.0,58,29.85,3.0,WNW,15.0,33.4,0.01,,Haze,290,2013-03-21 00:53:00
6:22 PM,42.8,32.0,66,29.86,2.5,West,15.0,23.0,0.00,Rain,Light Rain,260,2013-03-21 01:22:00
6:32 PM,42.8,33.8,70,29.86,3.0,West,13.8,26.5,0.00,,Haze,270,2013-03-21 01:32:00
6:53 PM,43.0,30.9,62,29.88,3.0,WNW,9.2,20.7,0.00,,Haze,290,2013-03-21 01:53:00
7:53 PM,41.0,33.1,73,29.92,3.0,WNW,9.2,23.0,0.01,Rain,Light Rain,290,2013-03-21 02:53:00
8:53 PM,42.1,30.0,62,29.95,5.0,West,10.4,19.6,0.00,,Haze,270,2013-03-21 03:53:00
9:53 PM,42.1,32.0,67,29.99,5.0,WNW,10.4,23.0,N/A,,Haze,290,2013-03-21 04:53:00
10:53 PM,37.4,30.2,75,30.00,5.0,Calm,Calm,-,N/A,,Haze,0,2013-03-21 05:53:00
11:53 PM,39.0,32.0,76,30.04,5.0,Calm,Calm,-,0.00,Rain,Light Rain,0,2013-03-21 06:53:00